Weather History for Farmington, NM

Change the Weather History Date:

Monday, July 21, 2014

  Actual Average Record
Temperature  
Mean Temperature 78 °F -  
Max Temperature 93 °F 90 °F 105 °F (2005)
Min Temperature 62 °F 60 °F 56 °F (1980)
Cooling Degree Days 12    
Growing Degree Days 28 (Base 50)    
Moisture  
Dew Point 33 °F    
Average Humidity 18    
Maximum Humidity 35    
Minimum Humidity 5    
Precipitation  
Precipitation 0.00 in - - ()
Sea Level Pressure  
Sea Level Pressure 29.99 in    
Wind  
Wind Speed 5 mph (North)    
Max Wind Speed 16 mph    
Max Gust Speed 20 mph    
Visibility 10 miles    
Events      
Averages and records for this station are not official NWS values.
T = Trace of Precipitation, MM = Missing Value Source: NWS Daily Summary

Daily Weather History Graph

Daily Weather History Graph

Search for Another Location

Airport:

Trip Planner

Search our weather history database for the weather conditions in past years. The results will help you decide how hot, cold, wet, or windy it might be!

Date:

Astronomy

Jul. 21, 2014 Rise Set
Actual Time 6:10 AM MDT 8:28 PM MDT
Civil Twilight 5:40 AM MDT 8:57 PM MDT
Nautical Twilight 5:04 AM MDT 9:33 PM MDT
Astronomical Twilight 4:24 AM MDT 10:13 PM MDT
Moon 2:01 AM MDT (7/21) 4:14 PM MDT (7/21)
Length of Visible Light 15h 16m
Length of Day
14h 18m
Waning Crescent, 24% of the Moon is Illuminated
Jul 21
Waning Crescent
Jul 26
New
Aug 3
First Quarter
Aug 10
Full
Aug 17
Last Quarter

Hourly Weather History & Observations

Time (MDT) Temp. Dew Point Humidity Pressure Visibility Wind Dir Wind Speed Gust Speed Precip Events Conditions
12:53 AM 77.0 °F 28.9 °F 17% 29.92 in 10.0 mi Calm Calm - N/A   Clear
1:53 AM 73.0 °F 28.9 °F 20% 29.93 in 10.0 mi NE 4.6 mph - N/A   Clear
2:53 AM 69.1 °F 30.0 °F 23% 29.95 in 10.0 mi East 4.6 mph - N/A   Clear
3:53 AM 73.9 °F 43.0 °F 33% 29.95 in 10.0 mi SE 8.1 mph - N/A   Clear
4:53 AM 66.0 °F 36.0 °F 33% 29.98 in 10.0 mi NNE 9.2 mph - N/A   Clear
5:53 AM 64.0 °F 35.1 °F 34% 29.99 in 10.0 mi North 8.1 mph - N/A   Clear
6:53 AM 64.0 °F 36.0 °F 35% 30.01 in 10.0 mi NNE 5.8 mph - N/A   Clear
7:53 AM 72.0 °F 42.1 °F 34% 30.02 in 10.0 mi East 5.8 mph - N/A   Clear
8:53 AM 75.0 °F 43.0 °F 32% 30.04 in 10.0 mi East 5.8 mph - N/A   Clear
9:53 AM 77.0 °F 43.0 °F 30% 30.05 in 10.0 mi Calm Calm - N/A   Clear
10:53 AM 80.1 °F 39.0 °F 23% 30.04 in 10.0 mi Calm Calm - N/A   Clear
11:53 AM 84.9 °F 34.0 °F 16% 30.04 in 10.0 mi Variable 4.6 mph - N/A   Clear
12:53 PM 89.1 °F 34.0 °F 14% 30.01 in 10.0 mi Variable 5.8 mph - N/A   Clear
1:53 PM 93.0 °F 30.0 °F 11% 29.99 in 10.0 mi WNW 12.7 mph 19.6 mph N/A   Clear
2:53 PM 91.9 °F 30.9 °F 11% 29.99 in 10.0 mi WSW 13.8 mph 18.4 mph N/A   Clear
3:53 PM 91.9 °F 33.1 °F 12% 29.96 in 10.0 mi WSW 16.1 mph - N/A   Clear
4:53 PM 91.0 °F 32.0 °F 12% 29.96 in 10.0 mi WSW 5.8 mph - N/A   Clear
5:53 PM 91.9 °F 30.9 °F 11% 29.95 in 10.0 mi Calm Calm - N/A   Clear
6:53 PM 93.0 °F 28.9 °F 10% 29.94 in 10.0 mi NW 10.4 mph - N/A   Clear
7:53 PM 89.1 °F 28.0 °F 11% 29.94 in 10.0 mi WNW 10.4 mph - N/A   Clear
8:53 PM 84.0 °F 28.0 °F 13% 29.96 in 10.0 mi NW 8.1 mph - N/A   Clear
9:53 PM 80.1 °F 28.0 °F 15% 29.98 in 10.0 mi North 4.6 mph - N/A   Clear
10:53 PM 72.0 °F 27.0 °F 19% 30.01 in 10.0 mi NNE 8.1 mph - N/A   Clear
11:53 PM 70.0 °F 28.0 °F 21% 30.00 in 10.0 mi Calm Calm - N/A   Clear